User: anonymous   Login
Location: Quebec
(46.8000°N, 71.2500°W)
Time: 00:16:04
(UTC-05:00)
Language:

Hubble Space Telescope - Orbit

View from above orbital plane
View from above orbital plane
View from above satellite
View from above satellite

Ground track
Ground track

The orbit data is extracted from the following two-line orbital elements,

1 20580U 90037B   17349.19492392  .00000489  00000-0  19022-4 0  9996
2 20580  28.4692 251.3134 0002554 323.2249 168.5897 15.08944284317659
Epoch (UTC): 15 December 2017 04:40:41
Eccentricity: 0.0002554
inclination: 28.4692°
perigee height: 537 km
apogee height: 541 km
right ascension of ascending node: 251.3134°
argument of perigee: 323.2249°
revolutions per day: 15.08944284
mean anomaly at epoch: 168.5897°
orbit number at epoch: 31765

The dashed part of the orbit path shows where the satellite is in the earth's shadow,  

DLR